Time,TemperatureF,DewpointF,PressureIn,WindDirection,WindDirectionDegrees,WindSpeedMPH,WindSpeedGustMPH,Humidity,HourlyPrecipIn,Conditions,Clouds,dailyrainin,SoftwareType,DateUTC
2013-09-02 00:00:00,73.0,61.4,29.71,SSE,158,2.0,10.0,67,0.00,,,0.00,Weather View 32 v70,2013-09-02 04:00:00,
2013-09-02 00:01:00,73.2,61.3,29.71,ESE,120,4.0,10.0,67,0.00,,,0.00,Weather View 32 v70,2013-09-02 04:01:00,
2013-09-02 00:02:00,73.6,61.7,29.68,ESE,119,3.0,10.0,67,0.00,,,0.00,Weather View 32 v70,2013-09-02 04:02:00,
2013-09-02 00:03:00,73.6,61.5,29.71,ESE,103,3.0,10.0,66,0.00,,,0.00,Weather View 32 v70,2013-09-02 04:03:00,
2013-09-02 00:08:00,72.8,61.4,29.71,SE,145,2.0,10.0,68,0.00,,,0.00,Weather View 32 v70,2013-09-02 04:08:00,
2013-09-02 00:13:00,72.3,60.6,29.71,SSW,198,4.0,10.0,67,0.00,,,0.00,Weather View 32 v70,2013-09-02 04:13:00,
2013-09-02 00:18:00,72.1,60.7,29.71,SW,214,4.0,10.0,68,0.00,,,0.00,Weather View 32 v70,2013-09-02 04:18:00,
2013-09-02 00:23:00,72.3,60.9,29.71,SSE,168,3.0,10.0,67,0.00,,,0.00,Weather View 32 v70,2013-09-02 04:23:00,
2013-09-02 00:28:00,72.5,61.2,29.71,South,185,3.0,8.0,68,0.00,,,0.00,Weather View 32 v70,2013-09-02 04:28:00,
2013-09-02 00:33:00,72.1,61.1,29.68,South,191,4.0,8.0,69,0.00,,,0.00,Weather View 32 v70,2013-09-02 04:33:00,
2013-09-02 00:38:00,72.5,62.1,29.71,ESE,120,3.0,10.0,70,0.00,,,0.00,Weather View 32 v70,2013-09-02 04:38:00,
2013-09-02 00:43:00,72.7,61.9,29.68,SE,146,2.0,10.0,69,0.00,,,0.00,Weather View 32 v70,2013-09-02 04:43:00,
2013-09-02 00:48:00,72.3,61.8,29.71,South,188,2.0,10.0,70,0.00,,,0.00,Weather View 32 v70,2013-09-02 04:48:00,
2013-09-02 00:53:00,72.1,61.1,29.71,SSW,201,2.0,10.0,69,0.00,,,0.00,Weather View 32 v70,2013-09-02 04:53:00,
2013-09-02 00:58:00,73.0,62.1,29.71,ESE,116,3.0,10.0,69,0.00,,,0.00,Weather View 32 v70,2013-09-02 04:58:00,
2013-09-02 01:03:00,72.7,61.7,29.71,ESE,119,4.0,10.0,69,0.00,,,0.00,Weather View 32 v70,2013-09-02 05:03:00,
2013-09-02 01:08:00,72.1,61.8,29.71,SSE,160,3.0,10.0,70,0.00,,,0.00,Weather View 32 v70,2013-09-02 05:08:00,
2013-09-02 01:13:00,72.3,62.3,29.68,ESE,114,3.0,10.0,71,0.00,,,0.00,Weather View 32 v70,2013-09-02 05:13:00,
2013-09-02 01:18:00,72.3,61.5,29.71,South,179,2.0,10.0,69,0.00,,,0.00,Weather View 32 v70,2013-09-02 05:18:00,
2013-09-02 01:23:00,72.7,62.1,29.71,ESE,114,2.0,10.0,70,0.00,,,0.00,Weather View 32 v70,2013-09-02 05:23:00,
2013-09-02 01:28:00,72.5,61.5,29.71,ESE,116,4.0,10.0,69,0.00,,,0.00,Weather View 32 v70,2013-09-02 05:28:00,
2013-09-02 01:33:00,72.3,61.0,29.71,SW,231,2.0,10.0,68,0.00,,,0.00,Weather View 32 v70,2013-09-02 05:33:00,
2013-09-02 01:38:00,72.1,61.0,29.71,SSE,164,2.0,6.0,68,0.00,,,0.00,Weather View 32 v70,2013-09-02 05:38:00,
2013-09-02 01:43:00,71.8,61.6,29.71,South,172,3.0,6.0,71,0.00,,,0.00,Weather View 32 v70,2013-09-02 05:43:00,
2013-09-02 01:48:00,71.6,61.4,29.71,South,179,4.0,6.0,71,0.00,,,0.00,Weather View 32 v70,2013-09-02 05:48:00,
2013-09-02 01:53:00,71.6,61.9,29.71,South,176,3.0,6.0,72,0.00,,,0.00,Weather View 32 v70,2013-09-02 05:53:00,
2013-09-02 01:58:00,72.1,62.4,29.71,SE,139,3.0,8.0,72,0.00,,,0.00,Weather View 32 v70,2013-09-02 05:58:00,
2013-09-02 02:03:00,72.1,61.8,29.68,South,174,2.0,8.0,70,0.00,,,0.00,Weather View 32 v70,2013-09-02 06:03:00,
2013-09-02 02:08:00,71.9,61.8,29.68,SSW,211,3.0,8.0,70,0.00,,,0.00,Weather View 32 v70,2013-09-02 06:08:00,
2013-09-02 02:13:00,72.1,61.8,29.68,SSE,157,2.0,8.0,70,0.00,,,0.00,Weather View 32 v70,2013-09-02 06:13:00,
2013-09-02 02:18:00,72.1,61.8,29.68,South,178,2.0,8.0,70,0.00,,,0.00,Weather View 32 v70,2013-09-02 06:18:00,
2013-09-02 02:23:00,72.1,61.4,29.68,SSW,196,6.0,8.0,69,0.00,,,0.00,Weather View 32 v70,2013-09-02 06:23:00,
2013-09-02 02:28:00,72.1,61.6,29.68,South,182,3.0,8.0,70,0.00,,,0.00,Weather View 32 v70,2013-09-02 06:28:00,
2013-09-02 02:33:00,72.3,61.7,29.68,SW,221,1.0,8.0,69,0.00,,,0.00,Weather View 32 v70,2013-09-02 06:33:00,
2013-09-02 02:38:00,72.7,61.7,29.68,SSE,154,3.0,8.0,69,0.00,,,0.00,Weather View 32 v70,2013-09-02 06:38:00,
2013-09-02 02:43:00,72.3,61.3,29.68,South,171,2.0,8.0,68,0.00,,,0.00,Weather View 32 v70,2013-09-02 06:43:00,
2013-09-02 02:48:00,72.5,61.2,29.68,WSW,242,3.0,8.0,68,0.00,,,0.00,Weather View 32 v70,2013-09-02 06:48:00,
2013-09-02 02:53:00,72.5,61.4,29.68,South,184,2.0,8.0,68,0.00,,,0.00,Weather View 32 v70,2013-09-02 06:53:00,
2013-09-02 02:58:00,73.0,61.3,29.68,SSE,162,1.0,6.0,67,0.00,,,0.00,Weather View 32 v70,2013-09-02 06:58:00,
2013-09-02 03:03:00,73.6,61.4,29.68,South,191,1.0,6.0,66,0.00,,,0.00,Weather View 32 v70,2013-09-02 07:03:00,
2013-09-02 03:08:00,73.6,60.9,29.68,South,190,2.0,6.0,65,0.00,,,0.00,Weather View 32 v70,2013-09-02 07:08:00,
2013-09-02 03:13:00,73.9,61.2,29.68,ESE,118,2.0,6.0,65,0.00,,,0.00,Weather View 32 v70,2013-09-02 07:13:00,
2013-09-02 03:18:00,74.5,61.0,29.68,SE,131,2.0,6.0,63,0.00,,,0.00,Weather View 32 v70,2013-09-02 07:18:00,
2013-09-02 03:23:00,75.2,61.2,29.68,ESE,116,1.0,6.0,62,0.00,,,0.00,Weather View 32 v70,2013-09-02 07:23:00,
2013-09-02 03:28:00,75.4,61.3,29.68,ESE,115,2.0,6.0,62,0.00,,,0.00,Weather View 32 v70,2013-09-02 07:28:00,
2013-09-02 03:33:00,73.2,60.2,29.68,SSE,162,1.0,5.0,64,0.00,,,0.00,Weather View 32 v70,2013-09-02 07:33:00,
2013-09-02 03:38:00,72.8,60.4,29.68,SSE,157,2.0,5.0,65,0.00,,,0.00,Weather View 32 v70,2013-09-02 07:38:00,
2013-09-02 03:43:00,73.6,61.3,29.68,SE,136,3.0,4.0,66,0.00,,,0.00,Weather View 32 v70,2013-09-02 07:43:00,
2013-09-02 03:48:00,73.7,61.2,29.68,ESE,105,2.0,4.0,65,0.00,,,0.00,Weather View 32 v70,2013-09-02 07:48:00,
2013-09-02 03:53:00,73.9,60.9,29.68,SE,133,3.0,4.0,64,0.00,,,0.00,Weather View 32 v70,2013-09-02 07:53:00,
2013-09-02 03:58:00,73.6,61.2,29.68,SE,131,5.0,6.0,65,0.00,,,0.00,Weather View 32 v70,2013-09-02 07:58:00,
2013-09-02 04:03:00,73.6,61.7,29.68,East,92,3.0,6.0,67,0.00,,,0.00,Weather View 32 v70,2013-09-02 08:03:00,
2013-09-02 04:08:00,73.6,61.9,29.71,SE,130,3.0,6.0,67,0.00,,,0.00,Weather View 32 v70,2013-09-02 08:08:00,
2013-09-02 04:13:00,73.0,61.8,29.65,East,93,2.0,6.0,68,0.00,,,0.00,Weather View 32 v70,2013-09-02 08:13:00,
2013-09-02 04:18:00,72.8,62.2,29.68,SE,146,2.0,7.0,69,0.00,,,0.00,Weather View 32 v70,2013-09-02 08:18:00,
2013-09-02 04:23:00,72.1,61.7,29.68,ESE,109,4.0,7.0,70,0.00,,,0.00,Weather View 32 v70,2013-09-02 08:23:00,
2013-09-02 04:28:00,71.8,61.5,29.68,SSE,165,4.0,7.0,70,0.00,,,0.00,Weather View 32 v70,2013-09-02 08:28:00,
2013-09-02 04:33:00,71.6,61.5,29.68,SSE,166,2.0,7.0,71,0.00,,,0.00,Weather View 32 v70,2013-09-02 08:33:00,
2013-09-02 04:38:00,71.9,62.1,29.71,East,87,1.0,7.0,71,0.00,,,0.00,Weather View 32 v70,2013-09-02 08:38:00,
2013-09-02 04:43:00,71.8,61.8,29.65,ESE,119,2.0,7.0,71,0.00,,,0.00,Weather View 32 v70,2013-09-02 08:43:00,
2013-09-02 04:48:00,71.4,61.1,29.68,SSW,204,4.0,7.0,70,0.00,,,0.00,Weather View 32 v70,2013-09-02 08:48:00,
2013-09-02 04:53:00,71.9,61.9,29.68,SSE,162,3.0,7.0,71,0.00,,,0.00,Weather View 32 v70,2013-09-02 08:53:00,
2013-09-02 04:58:00,71.8,61.5,29.68,SSW,200,2.0,7.0,70,0.00,,,0.00,Weather View 32 v70,2013-09-02 08:58:00,
2013-09-02 05:03:00,71.9,61.6,29.68,SE,126,2.0,7.0,70,0.00,,,0.00,Weather View 32 v70,2013-09-02 09:03:00,
2013-09-02 05:08:00,72.1,61.9,29.68,East,86,4.0,7.0,70,0.00,,,0.00,Weather View 32 v70,2013-09-02 09:08:00,
2013-09-02 05:13:00,72.1,61.6,29.68,SSE,147,1.0,7.0,70,0.00,,,0.00,Weather View 32 v70,2013-09-02 09:13:00,
2013-09-02 05:18:00,72.5,61.7,29.68,ESE,110,2.0,6.0,69,0.00,,,0.00,Weather View 32 v70,2013-09-02 09:18:00,
2013-09-02 05:23:00,72.7,61.9,29.68,ESE,123,3.0,6.0,69,0.00,,,0.00,Weather View 32 v70,2013-09-02 09:23:00,
2013-09-02 05:28:00,72.1,61.0,29.68,SW,224,3.0,6.0,68,0.00,,,0.00,Weather View 32 v70,2013-09-02 09:28:00,
2013-09-02 05:33:00,72.1,61.4,29.71,SE,137,1.0,6.0,69,0.00,,,0.00,Weather View 32 v70,2013-09-02 09:33:00,
2013-09-02 05:38:00,71.9,60.6,29.68,SW,216,3.0,6.0,68,0.00,,,0.00,Weather View 32 v70,2013-09-02 09:38:00,
2013-09-02 05:43:00,71.8,60.8,29.65,SSE,153,2.0,6.0,69,0.00,,,0.00,Weather View 32 v70,2013-09-02 09:43:00,
2013-09-02 05:48:00,71.8,61.1,29.71,South,174,2.0,6.0,69,0.00,,,0.00,Weather View 32 v70,2013-09-02 09:48:00,
2013-09-02 05:53:00,72.3,61.8,29.65,East,101,3.0,6.0,70,0.00,,,0.00,Weather View 32 v70,2013-09-02 09:53:00,
2013-09-02 05:58:00,72.1,61.8,29.68,East,96,4.0,7.0,70,0.00,,,0.00,Weather View 32 v70,2013-09-02 09:58:00,
2013-09-02 06:03:00,71.6,61.1,29.68,SW,214,4.0,7.0,70,0.00,,,0.00,Weather View 32 v70,2013-09-02 10:03:00,
2013-09-02 06:08:00,71.4,61.3,29.68,SW,222,2.0,7.0,71,0.00,,,0.00,Weather View 32 v70,2013-09-02 10:08:00,
2013-09-02 06:13:00,71.0,61.4,29.68,SSW,198,4.0,7.0,72,0.00,,,0.00,Weather View 32 v70,2013-09-02 10:13:00,
2013-09-02 06:18:00,71.6,62.1,29.68,SE,142,2.0,7.0,72,0.00,,,0.00,Weather View 32 v70,2013-09-02 10:18:00,
2013-09-02 06:23:00,71.8,61.9,29.68,South,183,2.0,7.0,71,0.00,,,0.00,Weather View 32 v70,2013-09-02 10:23:00,
2013-09-02 06:28:00,71.8,62.0,29.71,ESE,103,4.0,7.0,72,0.00,,,0.00,Weather View 32 v70,2013-09-02 10:28:00,
2013-09-02 06:33:00,71.9,62.3,29.71,ESE,106,2.0,7.0,72,0.00,,,0.00,Weather View 32 v70,2013-09-02 10:33:00,
2013-09-02 06:38:00,71.6,61.5,29.71,SE,140,5.0,7.0,71,0.00,,,0.00,Weather View 32 v70,2013-09-02 10:38:00,
2013-09-02 06:43:00,71.6,62.1,29.68,ESE,122,4.0,7.0,72,0.00,,,0.00,Weather View 32 v70,2013-09-02 10:43:00,
2013-09-02 06:48:00,71.8,62.2,29.68,SE,132,3.0,7.0,72,0.00,,,0.00,Weather View 32 v70,2013-09-02 10:48:00,
2013-09-02 06:53:00,71.4,61.3,29.68,SSW,196,4.0,7.0,71,0.00,,,0.00,Weather View 32 v70,2013-09-02 10:53:00,
2013-09-02 06:58:00,71.4,61.8,29.68,ESE,113,2.0,6.0,72,0.00,,,0.00,Weather View 32 v70,2013-09-02 10:58:00,
2013-09-02 07:03:00,71.8,62.2,29.68,East,100,2.0,5.0,72,0.00,,,0.00,Weather View 32 v70,2013-09-02 11:03:00,
2013-09-02 07:08:00,71.4,61.5,29.65,ESE,105,8.0,8.0,71,0.00,,,0.00,Weather View 32 v70,2013-09-02 11:08:00,
2013-09-02 07:13:00,71.2,61.5,29.68,SSE,152,1.0,8.0,72,0.00,,,0.00,Weather View 32 v70,2013-09-02 11:13:00,
2013-09-02 07:18:00,71.9,62.2,29.71,NE,44,1.0,8.0,72,0.00,,,0.00,Weather View 32 v70,2013-09-02 11:18:00,
2013-09-02 07:23:00,72.1,61.9,29.71,East,98,3.0,8.0,70,0.00,,,0.00,Weather View 32 v70,2013-09-02 11:23:00,
2013-09-02 07:28:00,71.8,61.6,29.68,ESE,120,3.0,8.0,70,0.00,,,0.00,Weather View 32 v70,2013-09-02 11:28:00,
2013-09-02 07:33:00,71.4,61.8,29.71,SE,140,2.0,8.0,72,0.00,,,0.00,Weather View 32 v70,2013-09-02 11:33:00,
2013-09-02 07:38:00,71.4,62.1,29.71,SE,144,3.0,8.0,73,0.00,,,0.00,Weather View 32 v70,2013-09-02 11:38:00,
2013-09-02 07:43:00,71.6,62.4,29.68,ESE,118,2.0,8.0,73,0.00,,,0.00,Weather View 32 v70,2013-09-02 11:43:00,
2013-09-02 07:48:00,71.8,62.5,29.68,ESE,107,2.0,8.0,73,0.00,,,0.00,Weather View 32 v70,2013-09-02 11:48:00,
2013-09-02 07:53:00,71.4,62.1,29.68,South,178,5.0,8.0,73,0.00,,,0.00,Weather View 32 v70,2013-09-02 11:53:00,
2013-09-02 07:58:00,71.4,62.2,29.68,SE,125,6.0,8.0,73,0.00,,,0.00,Weather View 32 v70,2013-09-02 11:58:00,
2013-09-02 08:03:00,71.6,62.4,29.68,South,170,3.0,8.0,73,0.00,,,0.00,Weather View 32 v70,2013-09-02 12:03:00,
2013-09-02 08:08:00,71.4,62.4,29.68,South,186,2.0,8.0,73,0.00,,,0.00,Weather View 32 v70,2013-09-02 12:08:00,
2013-09-02 08:13:00,71.6,62.6,29.68,East,90,2.0,6.0,73,0.00,,,0.00,Weather View 32 v70,2013-09-02 12:13:00,
2013-09-02 08:18:00,72.1,62.9,29.68,ESE,104,4.0,6.0,73,0.00,,,0.00,Weather View 32 v70,2013-09-02 12:18:00,
2013-09-02 08:23:00,72.1,62.8,29.71,SSE,150,4.0,6.0,73,0.00,,,0.00,Weather View 32 v70,2013-09-02 12:23:00,
2013-09-02 08:28:00,71.6,62.6,29.68,ESE,123,5.0,6.0,73,0.00,,,0.00,Weather View 32 v70,2013-09-02 12:28:00,
2013-09-02 08:33:00,71.6,62.6,29.68,SE,144,3.0,6.0,74,0.00,,,0.00,Weather View 32 v70,2013-09-02 12:33:00,
2013-09-02 08:38:00,71.8,62.8,29.68,East,85,4.0,6.0,74,0.00,,,0.00,Weather View 32 v70,2013-09-02 12:38:00,
2013-09-02 08:43:00,71.9,63.0,29.71,East,89,2.0,8.0,74,0.00,,,0.00,Weather View 32 v70,2013-09-02 12:43:00,
2013-09-02 08:48:00,71.9,63.2,29.68,SE,126,6.0,8.0,74,0.00,,,0.00,Weather View 32 v70,2013-09-02 12:48:00,
2013-09-02 08:53:00,72.1,63.2,29.68,East,91,2.0,8.0,74,0.00,,,0.00,Weather View 32 v70,2013-09-02 12:53:00,
2013-09-02 08:58:00,72.1,63.0,29.68,SE,141,2.0,8.0,73,0.00,,,0.00,Weather View 32 v70,2013-09-02 12:58:00,
2013-09-02 09:03:00,72.5,63.2,29.68,East,85,2.0,8.0,73,0.00,,,0.00,Weather View 32 v70,2013-09-02 13:03:00,
2013-09-02 09:08:00,72.8,63.1,29.68,East,86,3.0,8.0,72,0.00,,,0.00,Weather View 32 v70,2013-09-02 13:08:00,
2013-09-02 09:13:00,72.7,62.6,29.71,SE,143,3.0,8.0,71,0.00,,,0.00,Weather View 32 v70,2013-09-02 13:13:00,
2013-09-02 09:18:00,72.3,62.6,29.71,SSE,147,3.0,8.0,72,0.00,,,0.00,Weather View 32 v70,2013-09-02 13:18:00,
2013-09-02 09:23:00,72.3,62.7,29.68,SE,144,3.0,8.0,72,0.00,,,0.00,Weather View 32 v70,2013-09-02 13:23:00,
2013-09-02 09:28:00,73.0,63.1,29.71,ESE,102,4.0,8.0,71,0.00,,,0.00,Weather View 32 v70,2013-09-02 13:28:00,
2013-09-02 09:33:00,73.0,62.7,29.68,South,185,2.0,8.0,70,0.00,,,0.00,Weather View 32 v70,2013-09-02 13:33:00,
2013-09-02 09:38:00,73.2,63.0,29.68,SE,141,3.0,8.0,71,0.00,,,0.00,Weather View 32 v70,2013-09-02 13:38:00,
2013-09-02 09:43:00,73.4,63.2,29.68,SE,130,5.0,7.0,71,0.00,,,0.00,Weather View 32 v70,2013-09-02 13:43:00,
2013-09-02 09:48:00,73.2,62.8,29.68,East,86,7.0,8.0,70,0.00,,,0.00,Weather View 32 v70,2013-09-02 13:48:00,
2013-09-02 09:53:00,73.7,63.3,29.71,South,186,3.0,8.0,70,0.00,,,0.00,Weather View 32 v70,2013-09-02 13:53:00,
2013-09-02 09:58:00,74.3,63.5,29.71,East,92,5.0,8.0,69,0.00,,,0.00,Weather View 32 v70,2013-09-02 13:58:00,
2013-09-02 10:03:00,75.2,64.9,29.68,SE,130,4.0,8.0,71,0.00,,,0.00,Weather View 32 v70,2013-09-02 14:03:00,
2013-09-02 10:08:00,73.9,62.9,29.68,SSW,194,5.0,8.0,69,0.00,,,0.00,Weather View 32 v70,2013-09-02 14:08:00,
2013-09-02 10:13:00,75.4,64.7,29.71,SE,135,2.0,8.0,70,0.00,,,0.00,Weather View 32 v70,2013-09-02 14:13:00,
2013-09-02 10:18:00,74.3,62.9,29.68,SSE,161,2.0,8.0,68,0.00,,,0.00,Weather View 32 v70,2013-09-02 14:18:00,
2013-09-02 10:23:00,75.2,63.9,29.68,SSE,161,2.0,8.0,68,0.00,,,0.00,Weather View 32 v70,2013-09-02 14:23:00,
2013-09-02 10:28:00,74.1,62.6,29.68,SSW,202,6.0,8.0,68,0.00,,,0.00,Weather View 32 v70,2013-09-02 14:28:00,
2013-09-02 10:33:00,74.8,63.0,29.68,SSW,195,6.0,8.0,67,0.00,,,0.00,Weather View 32 v70,2013-09-02 14:33:00,
2013-09-02 10:38:00,74.3,62.5,29.68,SSW,208,7.0,8.0,67,0.00,,,0.00,Weather View 32 v70,2013-09-02 14:38:00,
2013-09-02 10:43:00,73.9,62.4,29.68,SSW,212,7.0,8.0,67,0.00,,,0.00,Weather View 32 v70,2013-09-02 14:43:00,
2013-09-02 10:48:00,75.0,63.6,29.68,SE,135,6.0,8.0,68,0.00,,,0.00,Weather View 32 v70,2013-09-02 14:48:00,
2013-09-02 10:53:00,76.4,63.6,29.65,ESE,103,3.0,8.0,65,0.00,,,0.00,Weather View 32 v70,2013-09-02 14:53:00,
2013-09-02 10:58:00,76.1,62.7,29.68,SW,216,2.0,8.0,64,0.00,,,0.00,Weather View 32 v70,2013-09-02 14:58:00,
2013-09-02 11:03:00,76.4,62.5,29.68,SSW,200,3.0,8.0,62,0.00,,,0.00,Weather View 32 v70,2013-09-02 15:03:00,
2013-09-02 11:08:00,76.1,62.5,29.68,SSW,202,2.0,8.0,63,0.00,,,0.00,Weather View 32 v70,2013-09-02 15:08:00,
2013-09-02 11:13:00,76.4,62.2,29.68,SW,222,2.0,8.0,62,0.00,,,0.00,Weather View 32 v70,2013-09-02 15:13:00,
2013-09-02 11:18:00,75.5,61.8,29.68,South,170,5.0,8.0,63,0.00,,,0.00,Weather View 32 v70,2013-09-02 15:18:00,
2013-09-02 11:23:00,75.9,62.0,29.65,South,185,5.0,8.0,62,0.00,,,0.00,Weather View 32 v70,2013-09-02 15:23:00,
2013-09-02 11:28:00,76.1,62.0,29.68,SW,232,3.0,8.0,62,0.00,,,0.00,Weather View 32 v70,2013-09-02 15:28:00,
2013-09-02 11:33:00,76.8,63.5,29.65,SSW,207,3.0,8.0,64,0.00,,,0.00,Weather View 32 v70,2013-09-02 15:33:00,
2013-09-02 11:38:00,75.0,62.6,29.68,SSW,200,6.0,9.0,65,0.00,,,0.00,Weather View 32 v70,2013-09-02 15:38:00,
2013-09-02 11:43:00,75.4,62.2,29.65,South,178,4.0,9.0,64,0.00,,,0.00,Weather View 32 v70,2013-09-02 15:43:00,
2013-09-02 11:48:00,75.0,61.9,29.68,SSW,203,3.0,9.0,64,0.00,,,0.00,Weather View 32 v70,2013-09-02 15:48:00,
2013-09-02 11:53:00,74.5,61.0,29.65,SSW,211,6.0,9.0,63,0.00,,,0.00,Weather View 32 v70,2013-09-02 15:53:00,
2013-09-02 11:59:00,73.7,61.5,29.68,SW,217,3.0,9.0,66,0.00,,,0.00,Weather View 32 v70,2013-09-02 15:59:00,
2013-09-02 12:04:00,74.3,62.1,29.68,SSW,211,5.0,9.0,66,0.00,,,0.00,Weather View 32 v70,2013-09-02 16:04:00,
2013-09-02 12:09:00,74.8,62.0,29.68,SSE,160,3.0,9.0,64,0.00,,,0.00,Weather View 32 v70,2013-09-02 16:09:00,
2013-09-02 12:14:00,75.4,63.3,29.65,SSE,166,1.0,9.0,66,0.00,,,0.00,Weather View 32 v70,2013-09-02 16:14:00,
2013-09-02 12:19:00,75.9,62.7,29.65,South,189,3.0,9.0,64,0.00,,,0.00,Weather View 32 v70,2013-09-02 16:19:00,
2013-09-02 12:24:00,75.2,62.2,29.68,SSW,209,6.0,9.0,64,0.00,,,0.00,Weather View 32 v70,2013-09-02 16:24:00,
2013-09-02 12:29:00,75.0,62.6,29.65,SSW,203,4.0,9.0,65,0.00,,,0.00,Weather View 32 v70,2013-09-02 16:29:00,
2013-09-02 12:34:00,75.2,63.0,29.68,SW,226,7.0,9.0,66,0.00,,,0.00,Weather View 32 v70,2013-09-02 16:34:00,
2013-09-02 12:39:00,74.8,63.3,29.65,SSW,199,7.0,11.0,68,0.00,,,0.00,Weather View 32 v70,2013-09-02 16:39:00,
2013-09-02 12:44:00,79.1,67.0,29.65,SSW,204,2.0,11.0,67,0.00,,,0.00,Weather View 32 v70,2013-09-02 16:44:00,
2013-09-02 12:49:00,78.2,62.9,29.65,SW,232,5.0,11.0,59,0.00,,,0.00,Weather View 32 v70,2013-09-02 16:49:00,
2013-09-02 12:54:00,76.3,62.2,29.68,SW,227,6.0,11.0,62,0.00,,,0.00,Weather View 32 v70,2013-09-02 16:54:00,
2013-09-02 12:59:00,77.7,64.5,29.65,SW,216,2.0,11.0,64,0.00,,,0.00,Weather View 32 v70,2013-09-02 16:59:00,
2013-09-02 13:04:00,76.3,62.2,29.65,SSW,213,4.0,11.0,62,0.00,,,0.00,Weather View 32 v70,2013-09-02 17:04:00,
2013-09-02 13:09:00,76.1,62.7,29.65,WSW,256,2.0,11.0,63,0.00,,,0.00,Weather View 32 v70,2013-09-02 17:09:00,
2013-09-02 13:14:00,76.8,63.4,29.65,NE,39,0.0,11.0,63,0.00,,,0.00,Weather View 32 v70,2013-09-02 17:14:00,
2013-09-02 13:19:00,74.6,58.5,29.68,NW,318,1.0,11.0,57,0.00,,,0.00,Weather View 32 v70,2013-09-02 17:19:00,
2013-09-02 13:24:00,74.5,57.3,29.65,ENE,63,2.0,11.0,55,0.00,,,0.00,Weather View 32 v70,2013-09-02 17:24:00,
2013-09-02 13:29:00,76.3,58.4,29.68,NE,55,0.0,11.0,54,0.00,,,0.00,Weather View 32 v70,2013-09-02 17:29:00,
2013-09-02 13:34:00,77.2,59.1,29.65,SE,128,1.0,11.0,54,0.00,,,0.00,Weather View 32 v70,2013-09-02 17:34:00,
2013-09-02 13:39:00,78.1,60.3,29.65,SE,140,1.0,10.0,55,0.00,,,0.00,Weather View 32 v70,2013-09-02 17:39:00,
2013-09-02 13:44:00,77.3,58.1,29.65,South,177,2.0,8.0,52,0.00,,,0.00,Weather View 32 v70,2013-09-02 17:44:00,
2013-09-02 13:49:00,78.2,59.1,29.65,SSE,156,3.0,8.0,52,0.00,,,0.00,Weather View 32 v70,2013-09-02 17:49:00,
2013-09-02 13:54:00,79.1,62.1,29.65,SE,125,3.0,8.0,56,0.00,,,0.00,Weather View 32 v70,2013-09-02 17:54:00,
2013-09-02 13:59:00,78.1,62.4,29.62,SW,216,7.0,8.0,59,0.00,,,0.00,Weather View 32 v70,2013-09-02 17:59:00,
2013-09-02 14:04:00,78.8,62.8,29.68,SE,131,4.0,8.0,58,0.00,,,0.00,Weather View 32 v70,2013-09-02 18:04:00,
2013-09-02 14:09:00,78.1,61.5,29.65,East,87,5.0,9.0,57,0.00,,,0.00,Weather View 32 v70,2013-09-02 18:09:00,
2013-09-02 14:14:00,77.9,61.2,29.65,SW,221,4.0,10.0,57,0.00,,,0.00,Weather View 32 v70,2013-09-02 18:14:00,
2013-09-02 14:19:00,75.9,60.3,29.65,South,188,4.0,10.0,59,0.00,,,0.00,Weather View 32 v70,2013-09-02 18:19:00,
2013-09-02 14:24:00,74.3,60.1,29.65,South,189,4.0,10.0,61,0.00,,,0.00,Weather View 32 v70,2013-09-02 18:24:00,
2013-09-02 14:29:00,74.8,61.4,29.65,ESE,102,5.0,11.0,63,0.00,,,0.00,Weather View 32 v70,2013-09-02 18:29:00,
2013-09-02 14:34:00,75.4,61.9,29.65,SW,228,5.0,11.0,63,0.00,,,0.00,Weather View 32 v70,2013-09-02 18:34:00,
2013-09-02 14:39:00,74.5,61.4,29.68,South,171,2.0,11.0,64,0.00,,,0.00,Weather View 32 v70,2013-09-02 18:39:00,
2013-09-02 14:44:00,74.8,62.4,29.65,SE,136,3.0,11.0,65,0.00,,,0.00,Weather View 32 v70,2013-09-02 18:44:00,
2013-09-02 14:49:00,74.3,61.7,29.65,ESE,121,5.0,11.0,65,0.00,,,0.00,Weather View 32 v70,2013-09-02 18:49:00,
2013-09-02 14:54:00,73.7,61.7,29.65,SSW,196,4.0,11.0,66,0.00,,,0.00,Weather View 32 v70,2013-09-02 18:54:00,
2013-09-02 14:59:00,73.9,61.8,29.65,SSE,165,5.0,11.0,66,0.00,,,0.00,Weather View 32 v70,2013-09-02 18:59:00,
2013-09-02 15:04:00,74.1,61.5,29.65,SSE,153,5.0,11.0,65,0.00,,,0.00,Weather View 32 v70,2013-09-02 19:04:00,
2013-09-02 15:09:00,74.1,61.7,29.65,SE,128,7.0,11.0,65,0.00,,,0.00,Weather View 32 v70,2013-09-02 19:09:00,
2013-09-02 15:14:00,74.8,62.2,29.65,ESE,113,4.0,11.0,65,0.00,,,0.00,Weather View 32 v70,2013-09-02 19:14:00,
2013-09-02 15:19:00,74.1,61.3,29.65,South,175,3.0,11.0,65,0.00,,,0.00,Weather View 32 v70,2013-09-02 19:19:00,
2013-09-02 15:24:00,74.6,61.6,29.65,SSE,157,1.0,11.0,64,0.00,,,0.00,Weather View 32 v70,2013-09-02 19:24:00,
2013-09-02 15:29:00,73.9,61.2,29.65,SSW,213,3.0,10.0,65,0.00,,,0.00,Weather View 32 v70,2013-09-02 19:29:00,
2013-09-02 15:34:00,73.7,61.7,29.65,SW,215,4.0,10.0,66,0.00,,,0.00,Weather View 32 v70,2013-09-02 19:34:00,
2013-09-02 15:39:00,74.5,62.1,29.62,SSW,207,4.0,10.0,66,0.00,,,0.00,Weather View 32 v70,2013-09-02 19:39:00,
2013-09-02 15:44:00,74.1,62.1,29.59,SSW,202,5.0,10.0,66,0.00,,,0.00,Weather View 32 v70,2013-09-02 19:44:00,
2013-09-02 15:49:00,75.4,62.2,29.62,SW,222,3.0,10.0,64,0.00,,,0.00,Weather View 32 v70,2013-09-02 19:49:00,
2013-09-02 15:54:00,75.0,61.9,29.65,SW,230,3.0,9.0,64,0.00,,,0.00,Weather View 32 v70,2013-09-02 19:54:00,
2013-09-02 15:59:00,75.2,62.1,29.62,West,259,5.0,9.0,64,0.00,,,0.00,Weather View 32 v70,2013-09-02 19:59:00,
2013-09-02 16:04:00,75.0,62.2,29.62,SW,232,3.0,8.0,65,0.00,,,0.00,Weather View 32 v70,2013-09-02 20:04:00,
2013-09-02 16:09:00,74.8,62.3,29.62,SW,214,4.0,8.0,65,0.00,,,0.00,Weather View 32 v70,2013-09-02 20:09:00,
2013-09-02 16:14:00,75.7,62.6,29.62,South,183,2.0,8.0,64,0.00,,,0.00,Weather View 32 v70,2013-09-02 20:14:00,
2013-09-02 16:19:00,75.9,62.7,29.62,South,176,2.0,8.0,64,0.00,,,0.00,Weather View 32 v70,2013-09-02 20:19:00,
2013-09-02 16:24:00,75.2,62.3,29.62,SW,217,6.0,8.0,65,0.00,,,0.00,Weather View 32 v70,2013-09-02 20:24:00,
2013-09-02 16:29:00,76.4,62.5,29.62,SW,222,4.0,8.0,62,0.00,,,0.00,Weather View 32 v70,2013-09-02 20:29:00,
2013-09-02 16:34:00,75.5,62.3,29.62,SSW,213,4.0,8.0,64,0.00,,,0.00,Weather View 32 v70,2013-09-02 20:34:00,
2013-09-02 16:39:00,76.3,62.6,29.62,SSW,205,2.0,8.0,63,0.00,,,0.00,Weather View 32 v70,2013-09-02 20:39:00,
2013-09-02 16:44:00,75.7,62.5,29.59,SSW,212,4.0,8.0,64,0.00,,,0.00,Weather View 32 v70,2013-09-02 20:44:00,
2013-09-02 16:49:00,75.7,62.3,29.59,SSW,201,4.0,8.0,63,0.00,,,0.00,Weather View 32 v70,2013-09-02 20:49:00,
2013-09-02 16:54:00,76.3,63.1,29.62,SE,132,2.0,8.0,64,0.00,,,0.00,Weather View 32 v70,2013-09-02 20:54:00,
2013-09-02 16:59:00,75.0,62.7,29.59,South,175,2.0,8.0,66,0.00,,,0.00,Weather View 32 v70,2013-09-02 20:59:00,
2013-09-02 17:04:00,75.7,62.7,29.62,SSW,200,4.0,8.0,64,0.00,,,0.00,Weather View 32 v70,2013-09-02 21:04:00,
2013-09-02 17:09:00,75.5,62.3,29.59,South,181,3.0,6.0,64,0.00,,,0.00,Weather View 32 v70,2013-09-02 21:09:00,
2013-09-02 17:14:00,76.1,63.1,29.59,SSE,151,2.0,6.0,64,0.00,,,0.00,Weather View 32 v70,2013-09-02 21:14:00,
2013-09-02 17:19:00,76.1,63.1,29.59,ESE,122,4.0,6.0,64,0.00,,,0.00,Weather View 32 v70,2013-09-02 21:19:00,
2013-09-02 17:24:00,75.2,62.8,29.59,SSW,201,5.0,6.0,66,0.00,,,0.00,Weather View 32 v70,2013-09-02 21:24:00,
2013-09-02 17:29:00,75.2,63.0,29.59,South,185,3.0,6.0,66,0.00,,,0.00,Weather View 32 v70,2013-09-02 21:29:00,
2013-09-02 17:34:00,74.8,63.0,29.59,SSW,202,5.0,7.0,67,0.00,,,0.00,Weather View 32 v70,2013-09-02 21:34:00,
2013-09-02 17:39:00,74.8,62.6,29.62,South,191,6.0,7.0,66,0.00,,,0.00,Weather View 32 v70,2013-09-02 21:39:00,
2013-09-02 17:44:00,74.8,62.4,29.62,SW,222,5.0,7.0,65,0.00,,,0.00,Weather View 32 v70,2013-09-02 21:44:00,
2013-09-02 17:49:00,74.8,62.5,29.59,SSW,208,3.0,8.0,66,0.00,,,0.00,Weather View 32 v70,2013-09-02 21:49:00,
2013-09-02 17:54:00,74.8,63.0,29.59,South,186,3.0,8.0,67,0.00,,,0.00,Weather View 32 v70,2013-09-02 21:54:00,
2013-09-02 17:59:00,75.0,62.8,29.62,SW,225,3.0,8.0,66,0.00,,,0.00,Weather View 32 v70,2013-09-02 21:59:00,
2013-09-02 18:04:00,75.2,62.2,29.59,South,181,3.0,8.0,64,0.00,,,0.00,Weather View 32 v70,2013-09-02 22:04:00,
2013-09-02 18:09:00,75.5,62.2,29.56,SSW,193,2.0,8.0,63,0.00,,,0.00,Weather View 32 v70,2013-09-02 22:09:00,
2013-09-02 18:14:00,75.9,62.7,29.59,SSE,152,2.0,8.0,64,0.00,,,0.00,Weather View 32 v70,2013-09-02 22:14:00,
2013-09-02 18:19:00,76.4,62.8,29.59,SE,135,2.0,8.0,63,0.00,,,0.00,Weather View 32 v70,2013-09-02 22:19:00,
2013-09-02 18:24:00,76.3,62.2,29.59,South,187,3.0,8.0,62,0.00,,,0.00,Weather View 32 v70,2013-09-02 22:24:00,
2013-09-02 18:29:00,75.0,62.1,29.59,SSW,195,3.0,8.0,64,0.00,,,0.00,Weather View 32 v70,2013-09-02 22:29:00,
2013-09-02 18:34:00,74.8,62.0,29.59,SSW,206,4.0,8.0,64,0.00,,,0.00,Weather View 32 v70,2013-09-02 22:34:00,
2013-09-02 18:39:00,75.2,62.6,29.62,SE,132,2.0,8.0,65,0.00,,,0.00,Weather View 32 v70,2013-09-02 22:39:00,
2013-09-02 18:44:00,75.2,62.1,29.62,South,173,2.0,8.0,64,0.00,,,0.00,Weather View 32 v70,2013-09-02 22:44:00,
2013-09-02 18:49:00,74.8,61.7,29.59,SW,225,5.0,8.0,64,0.00,,,0.00,Weather View 32 v70,2013-09-02 22:49:00,
2013-09-02 18:54:00,74.6,62.2,29.59,South,188,3.0,8.0,65,0.00,,,0.00,Weather View 32 v70,2013-09-02 22:54:00,
2013-09-02 18:59:00,74.6,62.2,29.62,SSW,213,2.0,8.0,65,0.00,,,0.00,Weather View 32 v70,2013-09-02 22:59:00,
2013-09-02 19:04:00,74.5,62.2,29.56,SW,230,2.0,8.0,66,0.00,,,0.00,Weather View 32 v70,2013-09-02 23:04:00,
2013-09-02 19:09:00,74.8,61.9,29.59,SSE,160,2.0,8.0,64,0.00,,,0.00,Weather View 32 v70,2013-09-02 23:09:00,
2013-09-02 19:14:00,74.5,61.8,29.59,South,191,4.0,8.0,65,0.00,,,0.00,Weather View 32 v70,2013-09-02 23:14:00,
2013-09-02 19:19:00,74.6,62.3,29.59,South,171,2.0,8.0,66,0.00,,,0.00,Weather View 32 v70,2013-09-02 23:19:00,
2013-09-02 19:24:00,74.3,62.1,29.59,SW,220,3.0,8.0,66,0.00,,,0.00,Weather View 32 v70,2013-09-02 23:24:00,
2013-09-02 19:29:00,74.5,62.0,29.59,SSE,157,1.0,8.0,65,0.00,,,0.00,Weather View 32 v70,2013-09-02 23:29:00,
2013-09-02 19:34:00,74.3,61.5,29.59,SSW,202,2.0,8.0,65,0.00,,,0.00,Weather View 32 v70,2013-09-02 23:34:00,
2013-09-02 19:39:00,73.9,61.6,29.56,SSW,208,4.0,6.0,66,0.00,,,0.00,Weather View 32 v70,2013-09-02 23:39:00,
2013-09-02 19:44:00,74.3,62.0,29.62,South,176,2.0,6.0,66,0.00,,,0.00,Weather View 32 v70,2013-09-02 23:44:00,
2013-09-02 19:49:00,74.5,62.0,29.59,SE,141,4.0,6.0,65,0.00,,,0.00,Weather View 32 v70,2013-09-02 23:49:00,
2013-09-02 19:54:00,73.7,61.4,29.59,South,173,2.0,6.0,66,0.00,,,0.00,Weather View 32 v70,2013-09-02 23:54:00,
2013-09-02 19:59:00,73.6,61.5,29.56,SSW,212,4.0,6.0,66,0.00,,,0.00,Weather View 32 v70,2013-09-02 23:59:00,
2013-09-02 20:04:00,73.6,62.7,29.56,SE,129,3.0,6.0,69,0.00,,,0.00,Weather View 32 v70,2013-09-03 00:04:00,
2013-09-02 20:09:00,73.2,62.3,29.56,SE,146,1.0,6.0,69,0.00,,,0.00,Weather View 32 v70,2013-09-03 00:09:00,
2013-09-02 20:14:00,73.2,61.7,29.59,South,189,2.0,6.0,67,0.00,,,0.00,Weather View 32 v70,2013-09-03 00:14:00,
2013-09-02 20:19:00,73.2,61.7,29.56,SSE,154,4.0,6.0,67,0.00,,,0.00,Weather View 32 v70,2013-09-03 00:19:00,
2013-09-02 20:24:00,73.2,61.8,29.59,South,179,3.0,6.0,68,0.00,,,0.00,Weather View 32 v70,2013-09-03 00:24:00,
2013-09-02 20:29:00,73.4,62.2,29.59,SSE,154,2.0,6.0,68,0.00,,,0.00,Weather View 32 v70,2013-09-03 00:29:00,
2013-09-02 20:34:00,72.8,61.6,29.59,SW,232,5.0,6.0,68,0.00,,,0.00,Weather View 32 v70,2013-09-03 00:34:00,
2013-09-02 20:39:00,72.7,62.2,29.59,SW,226,3.0,6.0,70,0.00,,,0.00,Weather View 32 v70,2013-09-03 00:39:00,
2013-09-02 20:44:00,72.7,61.9,29.59,SSW,205,5.0,6.0,69,0.00,,,0.00,Weather View 32 v70,2013-09-03 00:44:00,
2013-09-02 20:49:00,72.7,61.6,29.62,SW,217,5.0,6.0,68,0.00,,,0.00,Weather View 32 v70,2013-09-03 00:49:00,
2013-09-02 20:54:00,72.3,61.9,29.59,SSW,210,8.0,8.0,70,0.00,,,0.00,Weather View 32 v70,2013-09-03 00:54:00,
2013-09-02 20:59:00,72.3,62.5,29.56,SSW,196,5.0,8.0,71,0.00,,,0.00,Weather View 32 v70,2013-09-03 00:59:00,
2013-09-02 21:04:00,72.7,62.3,29.59,SSW,203,4.0,8.0,70,0.00,,,0.00,Weather View 32 v70,2013-09-03 01:04:00,
2013-09-02 21:09:00,73.0,62.3,29.59,South,181,3.0,8.0,69,0.00,,,0.00,Weather View 32 v70,2013-09-03 01:09:00,
2013-09-02 21:14:00,73.2,62.2,29.59,SSW,199,3.0,8.0,69,0.00,,,0.00,Weather View 32 v70,2013-09-03 01:14:00,
2013-09-02 21:19:00,73.2,61.9,29.62,SSW,196,2.0,8.0,68,0.00,,,0.00,Weather View 32 v70,2013-09-03 01:19:00,
2013-09-02 21:24:00,73.2,61.8,29.62,SSW,201,2.0,8.0,68,0.00,,,0.00,Weather View 32 v70,2013-09-03 01:24:00,
2013-09-02 21:29:00,73.9,62.0,29.59,SE,143,1.0,8.0,66,0.00,,,0.00,Weather View 32 v70,2013-09-03 01:29:00,
2013-09-02 21:34:00,73.6,60.9,29.59,SSW,193,2.0,8.0,65,0.00,,,0.00,Weather View 32 v70,2013-09-03 01:34:00,
2013-09-02 21:39:00,74.6,62.1,29.62,SE,136,1.0,8.0,65,0.00,,,0.00,Weather View 32 v70,2013-09-03 01:39:00,
2013-09-02 21:44:00,74.8,61.3,29.65,ESE,123,2.0,8.0,63,0.00,,,0.00,Weather View 32 v70,2013-09-03 01:44:00,
2013-09-02 21:49:00,75.2,61.4,29.59,SE,132,3.0,8.0,62,0.00,,,0.00,Weather View 32 v70,2013-09-03 01:49:00,
2013-09-02 21:54:00,74.8,61.1,29.62,SE,124,2.0,8.0,62,0.00,,,0.00,Weather View 32 v70,2013-09-03 01:54:00,
2013-09-02 21:59:00,74.8,61.2,29.62,SE,124,1.0,6.0,63,0.00,,,0.00,Weather View 32 v70,2013-09-03 01:59:00,
2013-09-02 22:04:00,74.8,60.9,29.62,SE,146,1.0,6.0,62,0.00,,,0.00,Weather View 32 v70,2013-09-03 02:04:00,
2013-09-02 22:09:00,74.1,60.2,29.62,SSE,152,2.0,6.0,62,0.00,,,0.00,Weather View 32 v70,2013-09-03 02:09:00,
2013-09-02 22:14:00,74.8,61.4,29.62,SE,132,3.0,5.0,63,0.00,,,0.00,Weather View 32 v70,2013-09-03 02:14:00,
2013-09-02 22:19:00,73.9,60.5,29.62,SSE,162,1.0,4.0,63,0.00,,,0.00,Weather View 32 v70,2013-09-03 02:19:00,
2013-09-02 22:24:00,73.9,61.0,29.62,SE,136,3.0,4.0,64,0.00,,,0.00,Weather View 32 v70,2013-09-03 02:24:00,
2013-09-02 22:29:00,73.7,60.0,29.59,SSE,157,1.0,4.0,62,0.00,,,0.00,Weather View 32 v70,2013-09-03 02:29:00,
2013-09-02 22:34:00,74.1,60.3,29.62,SE,145,1.0,4.0,62,0.00,,,0.00,Weather View 32 v70,2013-09-03 02:34:00,
2013-09-02 22:39:00,74.6,61.0,29.62,ESE,123,2.0,4.0,63,0.00,,,0.00,Weather View 32 v70,2013-09-03 02:39:00,
2013-09-02 22:44:00,74.6,60.8,29.62,ESE,122,2.0,4.0,62,0.00,,,0.00,Weather View 32 v70,2013-09-03 02:44:00,
2013-09-02 22:49:00,74.5,60.7,29.62,SE,133,1.0,3.0,62,0.00,,,0.00,Weather View 32 v70,2013-09-03 02:49:00,
2013-09-02 22:54:00,74.6,60.9,29.62,SE,135,1.0,3.0,63,0.00,,,0.00,Weather View 32 v70,2013-09-03 02:54:00,
2013-09-02 22:59:00,74.6,60.6,29.62,ESE,119,2.0,3.0,62,0.00,,,0.00,Weather View 32 v70,2013-09-03 02:59:00,
2013-09-02 23:04:00,75.0,60.5,29.62,SE,136,1.0,3.0,61,0.00,,,0.00,Weather View 32 v70,2013-09-03 03:04:00,
2013-09-02 23:09:00,74.8,60.0,29.62,SE,132,1.0,3.0,60,0.00,,,0.00,Weather View 32 v70,2013-09-03 03:09:00,
2013-09-02 23:14:00,73.6,59.4,29.62,SSE,159,1.0,3.0,61,0.00,,,0.00,Weather View 32 v70,2013-09-03 03:14:00,
2013-09-02 23:19:00,74.3,61.1,29.62,ESE,112,2.0,3.0,64,0.00,,,0.00,Weather View 32 v70,2013-09-03 03:19:00,
2013-09-02 23:24:00,73.6,60.1,29.62,SSE,163,2.0,3.0,63,0.00,,,0.00,Weather View 32 v70,2013-09-03 03:24:00,
2013-09-02 23:29:00,73.6,61.5,29.62,SE,134,2.0,4.0,66,0.00,,,0.00,Weather View 32 v70,2013-09-03 03:29:00,
2013-09-02 23:34:00,73.9,61.1,29.62,SE,131,3.0,4.0,64,0.00,,,0.00,Weather View 32 v70,2013-09-03 03:34:00,
2013-09-02 23:39:00,73.4,60.3,29.62,SSE,151,2.0,4.0,64,0.00,,,0.00,Weather View 32 v70,2013-09-03 03:39:00,
2013-09-02 23:44:00,73.4,60.8,29.62,SE,126,1.0,4.0,65,0.00,,,0.00,Weather View 32 v70,2013-09-03 03:44:00,
2013-09-02 23:49:00,72.7,60.0,29.62,South,185,1.0,4.0,65,0.00,,,0.00,Weather View 32 v70,2013-09-03 03:49:00,
2013-09-02 23:54:00,72.3,59.7,29.62,SSE,166,1.0,4.0,65,0.00,,,0.00,Weather View 32 v70,2013-09-03 03:54:00,
2013-09-02 23:59:00,72.3,60.0,29.62,South,178,1.0,4.0,65,0.00,,,0.00,Weather View 32 v70,2013-09-03 03:59:00,